Torna al catalogo

STARLINK-33790

AttivoComunicazioniVLEO
NORAD 64029·PAYLOAD·🇺🇸 United States

Lanciato May 16, 2025 da Vandenberg Space Force Base

Loading…

Prossimi Passaggi (prossime 24 ore)

TLE

AggiornatoSource: CelesTrak SupGP

Epoca: Sep 15, 2026, 02:15 UTC

1 64029C 25102H   26258.09423611  .00080378  00000+0  27966-2 0  2585
2 64029  70.0010 355.1159 0003711 265.1946 242.0194 15.29530926    10

Traccia STARLINK-33790 in tempo reale con AllMySat

Download on the App Store